Location: *
(58.7167°N, 26.1833°E)
Time: 05:29:48
(UTC+00:00)

ARGOS - Pass Details

Date: 25 August 2019
Orbit: 820 x 835 km, 98.5° (Epoch: 14 September)

Event Time Altitude Azimuth Distance (km) Brightness Sun altitude
Rises 18:16:10 0° 171° (S) 3,347 5.9 -5.4°
Reaches altitude 10° 18:18:32 10° 174° (S) 2,417 5.2 -5.7°
Maximum altitude 18:23:51 65° 257° (WSW) 905 3.6 -6.3°
Drops below altitude 10° 18:29:13 10° 339° (NNW) 2,432 6.5 -6.9°
Sets 18:31:36 0° 343° (NNW) 3,370 7.3 -7.1°
